Location: Unspecified
(41.5000°N, 0.0000°E)
Time: 04:40:13
(UTC+00:00)

Courier 1B Rocket - Pass Details

Date: 27 June 2019
Orbit: 920 x 1202 km, 28.3° (Epoch: 16 August)

Event Time Altitude Azimuth Distance (km) Brightness Sun altitude
Rises 04:18:00 0° 249° (WSW) 3,933 - -2.4°
Exits shadow 04:18:41 - 247° (WSW) 3,719 7.4 -2.3°
Reaches altitude 10° 04:21:18 10° 237° (WSW) 2,926 6.8 -1.9°
Maximum altitude 04:27:04 27° 183° (S) 1,887 6.2 -1.0°
Drops below altitude 10° 04:32:30 10° 129° (SE) 2,755 7.7 -0.1°
Sets 04:35:30 0° 117° (ESE) 3,661 8.5 0.4°
